Find Local Weather

World > North America > United States > Ohio

Cleveland, Ohio Regional Weather

Lat: 41.48N, Lon: 81.68W
Wx Zone: OHZ011
Warning FLW WEATHER ALERT - (More Info. Click Here) Warning
Feedback

Cleveland, OH Regional Weather

Expires:201904190600;;146390
ASUS41 KCLE 190502
RWRCLE
OHIO REGIONAL WEATHER ROUNDUP
NATIONAL WEATHER SERVICE CLEVELAND, OH
100 AM EDT FRI APR 19 2019

NOTE: "FAIR" INDICATES FEW OR NO CLOUDS BELOW 12,000 FEET WITH NO
SIGNIFICANT WEATHER AND/OR OBSTRUCTIONS TO VISIBILITY.


OHZ009>014-019>023-028>033-038-089-190600-
   NORTHEAST OHIO
  
CITY           SKY/WX    TMP DP  RH WIND       PRES   REMARKS
CLE-HOPKINS    CLOUDY    59  55  87 NW3       29.63F                  
CLE-LAKEFRONT  CLOUDY    55  52  89 W6        29.61F                  
CUY CO. ARPT   CLOUDY    58  55  91 W5        29.63F                  
LORAIN-ELYRIA  CLOUDY    56  50  80 NW15      29.64S                  
ASHTABULA      CLOUDY    60  57  89 CALM      29.61F                  
AKRON-CANTON   FAIR      62  55  77 N8        29.61S                  
WOOSTER        FAIR      60  57  89 N9        29.61S                  
MANSFIELD      CLOUDY    58  56  93 NW8       29.63R                  
YOUNGSTOWN     CLOUDY    61  55  81 N6        29.61S                  
$$


SKY/WX - Weather  TMP - Temperature  DP - Dew Point  RH - Relative Humidity
WIND - Wind Direction/Speed PRES - Barometric Pressure VSB - Visibility
WCI - Wind Chill Index E13G22 Wind - East Wind 13 mph/Gusts of 22 mph